Grand Island, NE

10:59 PM CST on November 19, 2017 (GMT -0600)
Central Nebraska Regional

Weather History for KGRI - August, 2013

Change the Weather History Date:

Wednesday, August 21, 2013

  Actual Average Record
Temperature  
Mean Temperature 79 °F 74 °F  
Max Temperature 92 °F 85 °F 105 °F (1929)
Min Temperature 65 °F 62 °F 47 °F (2016)
Degree Days  
Heating Degree Days 0 0  
Month to date heating degree days 0 0  
Since 1 June heating degree days 24 26  
Since 1 July heating degree days 3 2  
Cooling Degree Days 14 9  
Month to date cooling degree days 176 209  
Year to date cooling degree days 891 836  
Since 1 June cooling degree days 796 771  
Growing Degree Days 28 (Base 50)    
Moisture  
Dew Point 67 °F    
Average Humidity 71    
Maximum Humidity 93    
Minimum Humidity 49    
Precipitation  
Precipitation 0.00 in 0.09 in 1.63 in (1997)
Month to date precipitation 2.28 2.22  
Year to date precipitation 18.67 19.87  
Snow  
Snow 0.00 in 0.00 in - ()
Month to date snowfall 0.0 0.0  
Since 1 June snowfall 0.0 0.0  
Since 1 July snowfall 0.0 0.0  
Snow Depth 0.00 in    
Sea Level Pressure  
Sea Level Pressure 29.92 in    
Wind  
Wind Speed 12 mph (SSE)    
Max Wind Speed 29 mph    
Max Gust Speed 35 mph    
Visibility 10 miles    
Events      
T = Trace of Precipitation, MM = Missing Value Source: NWS Daily Summary

Daily Weather History Graph

Daily Weather History Graph

Search for Another Location

Airport or City:

Trip Planner

Search our weather history database for the weather conditions in past years. The results will help you decide how hot, cold, wet, or windy it might be!

Date:

Astronomy

Aug. 21, 2013 Rise Set
Actual Time 6:49 AM CDT 8:22 PM CDT
Civil Twilight 6:20 AM CDT 8:51 PM CDT
Nautical Twilight 5:45 AM CDT 9:26 PM CDT
Astronomical Twilight 5:08 AM CDT 10:03 PM CDT
Moon 8:31 PM CDT (8/21) 7:31 AM CDT (8/21)
Length of Visible Light 14h 31m
Length of Day
13h 33m
Waxing Gibbous, 99% of the Moon is Illuminated
Aug 21
Waxing Gibbous
Aug 28
Last Quarter
Sep 5
New
Sep 12
First Quarter
Sep 19
Full

Hourly Weather History & Observations

Time (CDT) Temp. Heat Index Dew Point Humidity Pressure Visibility Wind Dir Wind Speed Gust Speed Precip Events Conditions
12:53 AM 77.0 °F - 64.9 °F 66% 29.90 in 10.0 mi South 13.8 mph - N/A   Clear
1:53 AM 75.9 °F - 64.9 °F 69% 29.91 in 10.0 mi South 16.1 mph - N/A   Clear
2:53 AM 73.9 °F - 64.9 °F 73% 29.89 in 10.0 mi South 13.8 mph - N/A   Clear
3:53 AM 73.0 °F - 64.9 °F 76% 29.88 in 10.0 mi South 12.7 mph - N/A   Clear
4:53 AM 70.0 °F - 64.9 °F 84% 29.91 in 10.0 mi SSE 5.8 mph - N/A   Clear
5:53 AM 68.0 °F - 64.0 °F 87% 29.93 in 10.0 mi East 3.5 mph - N/A   Clear
6:53 AM 64.9 °F - 63.0 °F 93% 29.95 in 6.0 mi ESE 4.6 mph - N/A   Clear
7:53 AM 66.9 °F - 64.9 °F 93% 29.96 in 5.0 mi ESE 5.8 mph - N/A   Clear
8:53 AM 71.1 °F - 66.0 °F 84% 29.97 in 9.0 mi SE 5.8 mph - N/A   Clear
9:53 AM 77.0 °F - 64.9 °F 66% 29.96 in 10.0 mi South 12.7 mph 17.3 mph N/A   Clear
10:53 AM 79.0 °F - 66.0 °F 64% 29.96 in 10.0 mi South 10.4 mph - N/A   Clear
11:53 AM 82.0 °F 84.9 °F 68.0 °F 62% 29.94 in 10.0 mi South 9.2 mph - N/A   Clear
12:53 PM 87.1 °F 89.9 °F 66.9 °F 51% 29.94 in 10.0 mi South 11.5 mph - N/A   Clear
1:22 PM 87.8 °F 91.4 °F 68.0 °F 52% 29.99 in 10.0 mi South 12.7 mph - N/A   Clear
1:53 PM 90.0 °F 94.5 °F 69.1 °F 50% 29.93 in 10.0 mi SSE 13.8 mph - N/A   Clear
2:53 PM 91.0 °F 95.6 °F 69.1 °F 48% 29.92 in 10.0 mi SSE 12.7 mph 17.3 mph N/A   Clear
3:53 PM 91.0 °F 97.6 °F 71.1 °F 52% 29.92 in 10.0 mi SSE 11.5 mph - N/A   Clear
4:53 PM 91.0 °F 97.6 °F 71.1 °F 52% 29.91 in 10.0 mi SE 12.7 mph - N/A   Clear
5:53 PM 90.0 °F 96.4 °F 71.1 °F 54% 29.90 in 10.0 mi SSE 10.4 mph - N/A   Clear
6:53 PM 87.1 °F 94.5 °F 73.0 °F 63% 29.89 in 10.0 mi SSE 12.7 mph - N/A   Clear
7:53 PM 84.0 °F 89.0 °F 71.1 °F 65% 29.88 in 10.0 mi SSE 10.4 mph 18.4 mph N/A   Clear
8:53 PM 82.9 °F 87.0 °F 70.0 °F 65% 29.89 in 10.0 mi South 12.7 mph - N/A   Partly Cloudy
9:53 PM 82.0 °F 84.9 °F 68.0 °F 62% 29.89 in 10.0 mi South 16.1 mph - N/A   Clear
10:53 PM 80.1 °F 82.7 °F 68.0 °F 67% 29.88 in 10.0 mi South 12.7 mph - N/A   Clear
11:53 PM 82.0 °F 83.1 °F 63.0 °F 52% 29.92 in 10.0 mi South 12.7 mph - N/A   Clear